Location: Sawmill Trailhead
(33.5800°N, 116.4497°W)
Time: 05:50:18
(UTC-07:00)

Amateur Radio Satellites - All Passes

Search period start: 27 August 2014 05:20
Search period end: 28 August 2014 05:20
Location: Sawmill Trailhead, 33.5800°N, 116.4497°W

Satellite Date Start Highest point End Downlink Frequencies (MHz)
Time Altitude Azimuth
JAS-2 27 Aug 05:34:28 05:37:07 14° 94° (E) 05:39:50 435.800 - 435.900 CW/SSB, 435.910 FM
SO-50 27 Aug 06:01:34 06:03:40 13° 313° (NW) 06:05:48 436.795 FM
Uosat F 27 Aug 06:18:34 06:21:54 18° 294° (WNW) 06:25:14 435.120 FM
STRAND 1 27 Aug 06:24:47 06:29:39 47° 73° (ENE) 06:34:31 ?
UOSAT-12 27 Aug 06:39:55 06:44:26 58° 301° (WNW) 06:49:03 437.025 FM, 437.400 FM
AO-7 27 Aug 06:45:05 06:51:42 28° 300° (WNW) 06:58:20 29.400 - 29.500 MHz
Hamsat 27 Aug 06:46:31 06:50:53 81° 283° (WNW) 06:55:11 145.90 MHz
SO-67 27 Aug 07:12:46 07:15:28 21° 96° (E) 07:18:10 435.3500 MHz FM
JAS-2 27 Aug 07:17:21 07:22:27 55° 286° (WNW) 07:27:53 435.800 - 435.900 CW/SSB, 435.910 FM
RS-15 27 Aug 07:52:17 08:03:12 62° 112° (ESE) 08:13:52 29.354 - 29.394 USB, Beacon 29.352 USB
Saudisat 1A 27 Aug 07:53:49 07:57:02 19° 51° (NE) 08:00:13 436.775 MHz
STRAND 1 27 Aug 08:05:56 08:09:01 16° 266° (W) 08:12:07 ?
KITSAT 1 27 Aug 08:27:21 08:34:00 27° 50° (NE) 08:40:36 435.175 FM
SO-67 27 Aug 08:46:12 08:48:19 16° 289° (WNW) 08:50:26 435.3500 MHz FM
HO-68 27 Aug 08:49:33 08:55:19 26° 96° (E) 09:01:03 435.675 MHz FM
Saudisat 1A 27 Aug 09:32:39 09:36:42 36° 247° (WSW) 09:40:43 436.775 MHz
UKube-1 27 Aug 09:51:39 09:55:50 45° 100° (E) 09:59:59 145.840 MHz, 145.915 MHz
Oscar 11 27 Aug 10:01:52 10:05:56 37° 98° (E) 10:09:57 145.825 FM, Beacon 2401.500 USB
RS-15 27 Aug 10:06:18 10:16:03 35° 313° (NW) 10:25:47 29.354 - 29.394 USB, Beacon 29.352 USB
FUNcube-1 27 Aug 10:17:35 10:21:03 22° 96° (E) 10:24:33 145.950 - 145.970 MHz USB
KITSAT 1 27 Aug 10:21:57 10:29:53 63° 248° (WSW) 10:37:46 435.175 FM
HO-68 27 Aug 10:36:21 10:43:11 50° 291° (WNW) 10:50:00 435.675 MHz FM
UKube-1 27 Aug 11:29:37 11:31:35 13° 294° (WNW) 11:33:33 145.840 MHz, 145.915 MHz
ISS 27 Aug 11:30:40 11:33:58 75° 317° (NW) 11:37:17 145.800 FM
Oscar 11 27 Aug 11:39:09 11:41:46 16° 292° (WNW) 11:44:23 145.825 FM, Beacon 2401.500 USB
FUNcube-1 27 Aug 11:53:30 11:57:23 29° 288° (WNW) 12:01:18 145.950 - 145.970 MHz USB
Oscar 19 27 Aug 12:27:51 12:31:03 17° 66° (ENE) 12:34:16 437.125 CW, 437.150 USB
RS-15 27 Aug 12:30:49 12:33:18 11° 345° (NNW) 12:35:48 29.354 - 29.394 USB, Beacon 29.352 USB
PANSAT 27 Aug 12:32:17 12:34:42 16° 160° (SSE) 12:37:07 not established
ITAMSAT 1 27 Aug 12:53:13 12:55:16 12° 64° (ENE) 12:57:19 435.822 SSB
SO-50 27 Aug 12:54:14 12:57:56 22° 52° (NE) 13:01:40 436.795 FM
Oscar 16 27 Aug 13:00:19 13:05:00 37° 71° (ENE) 13:09:44 437.025 USB, Beacon 2401.1428
JAS-1B 27 Aug 13:01:21 13:09:15 29° 64° (ENE) 13:16:41 435.800 - 435.900 CW/SSB
Uribyol 2 27 Aug 13:02:49 13:06:02 17° 66° (ENE) 13:09:16 436.500 FM
ISS 27 Aug 13:10:40 13:11:11 10° 333° (NNW) 13:11:42 145.800 FM
MaSat-1 27 Aug 13:17:09 13:21:21 34° 105° (ESE) 13:25:54 437.345 MHz
AO-27 27 Aug 13:18:58 13:23:02 24° 68° (ENE) 13:27:06 436.795 MHz FM
AO-Echo 27 Aug 13:22:48 13:27:05 27° 70° (ENE) 13:31:15 ?
Gurwin Techsat 1B 27 Aug 13:28:51 13:30:50 12° 63° (ENE) 13:32:49 435.225 FM
Oscar 19 27 Aug 14:04:59 14:09:56 49° 260° (W) 14:14:57 437.125 CW, 437.150 USB
PANSAT 27 Aug 14:10:56 14:14:25 33° 172° (S) 14:17:55 not established
TMSAT-1 27 Aug 14:19:54 14:24:23 29° 69° (ENE) 14:28:52 436.925 FM
ITAMSAT 1 27 Aug 14:28:59 14:34:08 68° 258° (WSW) 14:39:17 435.822 SSB
SO-50 27 Aug 14:34:08 14:38:36 39° 247° (WSW) 14:43:06 436.795 FM
Uribyol 2 27 Aug 14:40:07 14:45:04 48° 260° (W) 14:50:04 436.500 FM
Oscar 16 27 Aug 14:40:36 14:44:25 21° 265° (W) 14:48:15 437.025 USB, Beacon 2401.1428
RS-15 27 Aug 14:47:45 14:53:09 14° 25° (NNE) 14:58:36 29.354 - 29.394 USB, Beacon 29.352 USB
JAS-1B 27 Aug 14:49:11 14:59:02 68° 258° (WSW) 15:08:19 435.800 - 435.900 CW/SSB
MaSat-1 27 Aug 14:54:32 14:58:27 24° 302° (WNW) 15:02:36 437.345 MHz
AO-27 27 Aug 14:57:39 15:02:19 34° 262° (W) 15:07:00 436.795 MHz FM
AO-Echo 27 Aug 15:01:21 15:05:43 28° 263° (W) 15:09:59 ?
Oscar 10/S400 27 Aug 15:02:09 15:21:02 23° 151° (SSE) 15:35:03 145.825 - 145.975 CW/USB, Beacon 145.810 USB
Gurwin Techsat 1B 27 Aug 15:04:50 15:10:07 72° 258° (WSW) 15:15:26 435.225 FM
UOSAT-12 27 Aug 15:13:28 15:17:54 39° 56° (ENE) 15:22:14 437.025 FM, 437.400 FM
AO-7 27 Aug 15:45:39 15:53:43 56° 68° (ENE) 16:01:46 29.400 - 29.500 MHz
Uosat F 27 Aug 15:48:10 15:52:47 39° 71° (ENE) 15:57:25 435.120 FM
PANSAT 27 Aug 15:50:43 15:54:18 36° 185° (S) 15:57:51 not established
TMSAT-1 27 Aug 15:59:40 16:04:11 29° 263° (W) 16:08:43 436.925 FM
Sapphire 27 Aug 16:46:32 16:51:06 29° 108° (ESE) 16:55:43 437.095 MHz 1200 baud AX-25 AFSK
JAS-1B 27 Aug 16:47:44 16:50:28 11° 272° (W) 16:53:11 435.800 - 435.900 CW/SSB
UOSAT-12 27 Aug 16:54:29 16:57:43 19° 251° (WSW) 17:00:54 437.025 FM, 437.400 FM
RS-15 27 Aug 16:58:23 17:09:06 50° 54° (NE) 17:20:10 29.354 - 29.394 USB, Beacon 29.352 USB
OPAL 27 Aug 17:01:09 17:06:18 57° 103° (ESE) 17:11:24 ?
PCSat 27 Aug 17:15:30 17:20:48 61° 112° (ESE) 17:26:09 145.825 MHz
JAS-2 27 Aug 17:25:04 17:30:59 39° 72° (ENE) 17:36:19 435.800 - 435.900 CW/SSB, 435.910 FM
Uosat F 27 Aug 17:28:08 17:31:39 19° 265° (W) 17:35:11 435.120 FM
PANSAT 27 Aug 17:31:09 17:34:05 21° 197° (SSW) 17:37:00 not established
Hamsat 27 Aug 17:35:48 17:39:49 41° 74° (ENE) 17:43:54 145.90 MHz
AO-7 27 Aug 17:39:55 17:46:43 28° 263° (W) 17:53:34 29.400 - 29.500 MHz
ISS 27 Aug 18:03:08 18:05:43 21° 34° (NE) 18:08:17 145.800 FM
Sapphire 27 Aug 18:29:37 18:34:23 31° 303° (WNW) 18:39:12 437.095 MHz 1200 baud AX-25 AFSK
STRAND 1 27 Aug 18:40:08 18:44:04 22° 96° (E) 18:47:58 ?
OPAL 27 Aug 18:41:40 18:44:38 15° 297° (WNW) 18:47:35 ?
PCSat 27 Aug 19:01:12 19:04:37 17° 309° (NW) 19:08:04 145.825 MHz
JAS-2 27 Aug 19:10:39 19:16:01 27° 262° (W) 19:20:57 435.800 - 435.900 CW/SSB, 435.910 FM
RS-15 27 Aug 19:11:01 19:21:12 43° 252° (WSW) 19:31:49 29.354 - 29.394 USB, Beacon 29.352 USB
SO-67 27 Aug 19:13:53 19:17:20 87° 79° (E) 19:20:49 435.3500 MHz FM
Hamsat 27 Aug 19:13:57 19:15:56 13° 268° (W) 19:17:56 145.90 MHz
HO-68 27 Aug 19:17:11 19:20:09 13° 57° (ENE) 19:23:07 435.675 MHz FM
ISS 27 Aug 19:39:27 19:42:29 33° 229° (SW) 19:45:30 145.800 FM
STRAND 1 27 Aug 20:18:41 20:23:16 35° 289° (WNW) 20:27:50 ?
UKube-1 27 Aug 20:43:48 20:47:19 24° 70° (ENE) 20:50:50 145.840 MHz, 145.915 MHz
Oscar 11 27 Aug 20:53:57 20:56:56 19° 69° (ENE) 20:59:55 145.825 FM, Beacon 2401.500 USB
HO-68 27 Aug 20:59:37 21:06:45 83° 73° (ENE) 21:13:55 435.675 MHz FM
Saudisat 1A 27 Aug 21:58:39 22:00:08 12° 107° (ESE) 22:01:38 436.775 MHz
UKube-1 27 Aug 22:19:57 22:23:24 23° 263° (W) 22:26:52 145.840 MHz, 145.915 MHz
Oscar 11 27 Aug 22:29:02 22:32:51 31° 263° (W) 22:36:43 145.825 FM, Beacon 2401.500 USB
FUNcube-1 27 Aug 22:45:38 22:49:41 55° 260° (W) 22:53:49 145.950 - 145.970 MHz USB
KITSAT 1 27 Aug 22:51:30 22:58:12 29° 106° (ESE) 23:04:53 435.175 FM
HO-68 27 Aug 22:51:40 22:55:05 14° 268° (W) 22:58:30 435.675 MHz FM
MaSat-1 27 Aug 23:15:51 23:19:53 30° 60° (ENE) 23:23:25 437.345 MHz
Saudisat 1A 27 Aug 23:34:54 23:39:12 54° 301° (WNW) 23:43:32 436.775 MHz
KITSAT 1 28 Aug 00:45:18 00:53:08 53° 302° (WNW) 01:01:01 435.175 FM
MaSat-1 28 Aug 00:53:41 00:56:32 17° 260° (W) 00:59:08 437.345 MHz
Oscar 16 28 Aug 01:16:56 01:20:30 19° 94° (E) 01:24:03 437.025 USB, Beacon 2401.1428
AO-Echo 28 Aug 01:37:14 01:37:27 10° 92° (E) 01:37:39 ?
AO-27 28 Aug 01:38:08 01:39:27 11° 92° (E) 01:40:46 436.795 MHz FM
Sapphire 28 Aug 01:40:14 01:42:05 12° 48° (NE) 01:43:55 437.095 MHz 1200 baud AX-25 AFSK
PCSat 28 Aug 02:08:14 02:12:24 22° 54° (NE) 02:16:33 145.825 MHz
Oscar 19 28 Aug 02:20:28 02:25:42 83° 103° (ESE) 02:30:52 437.125 CW, 437.150 USB
TMSAT-1 28 Aug 02:40:45 02:43:50 16° 93° (E) 02:46:54 436.925 FM
JAS-1B 28 Aug 02:42:26 02:48:48 46° 98° (E) 02:54:23 435.800 - 435.900 CW/SSB
ITAMSAT 1 28 Aug 02:45:58 02:51:06 61° 101° (ESE) 02:56:12 435.822 SSB
KITSAT 1 28 Aug 02:48:20 02:50:34 11° 324° (NW) 02:52:49 435.175 FM
Oscar 16 28 Aug 02:55:05 02:59:58 43° 288° (WNW) 03:04:50 437.025 USB, Beacon 2401.1428
Uribyol 2 28 Aug 02:56:40 03:01:53 84° 103° (ESE) 03:07:05 436.500 FM
SO-50 28 Aug 03:06:54 03:09:22 15° 108° (ESE) 03:11:51 436.795 FM
AO-Echo 28 Aug 03:11:56 03:16:33 60° 285° (WNW) 03:21:11 ?
AO-27 28 Aug 03:14:12 03:19:21 68° 285° (WNW) 03:24:29 436.795 MHz FM
Sapphire 28 Aug 03:20:47 03:26:15 88° 65° (ENE) 03:31:39 437.095 MHz 1200 baud AX-25 AFSK
Gurwin Techsat 1B 28 Aug 03:25:13 03:30:29 65° 101° (ESE) 03:35:44 435.225 FM
PCSat 28 Aug 03:50:51 03:55:59 44° 250° (WSW) 04:01:05 145.825 MHz
AO-7 28 Aug 03:53:05 03:59:11 22° 95° (E) 04:05:13 29.400 - 29.500 MHz
Uosat F 28 Aug 04:01:03 04:04:10 16° 94° (E) 04:07:16 435.120 FM
Oscar 19 28 Aug 04:04:12 04:04:16 10° 298° (WNW) 04:04:20 437.125 CW, 437.150 USB
OPAL 28 Aug 04:12:10 04:17:07 65° 72° (ENE) 04:22:11 ?
TMSAT-1 28 Aug 04:18:52 04:23:59 52° 287° (WNW) 04:29:05 436.925 FM
ITAMSAT 1 28 Aug 04:27:28 04:30:01 14° 296° (WNW) 04:32:35 435.822 SSB
JAS-1B 28 Aug 04:33:57 04:38:55 22° 298° (WNW) 04:43:26 435.800 - 435.900 CW/SSB
SO-50 28 Aug 04:45:14 04:49:29 44° 303° (WNW) 04:53:50 436.795 FM
Gurwin Techsat 1B 28 Aug 05:07:21 05:09:51 14° 296° (WNW) 05:12:20 435.225 FM
